Voltar ao catálogo

SL-16 DEB

AtivoLEO
NORAD 22549·DEBRIS·🇷🇺 Russia

Lançado Dec 25, 1992 de Baikonur Cosmodrome

Loading…

Próximas Passagens (próximas 24 horas)

TLE

AtualizadoSource: Space-Track

Época: Sep 13, 2026, 14:34 UTC

1 22549U 92093HK  26256.60743985  .00001102  00000-0  49257-3 0  9992
2 22549  71.2442  18.0839 0093634  38.1986 322.5728 14.22432304724415

Acompanhe SL-16 DEB em tempo real com AllMySat

Download on the App Store